Stations météo

réclame
Mon MeteoGroup
Norderney, Allemagne (10113): Température de l'air & dewpoint: 09.12.2019 23:00:00 - 15.12.2019 23:00:00 (CET)Norderney, Allemagne (10113): Température de l'air 5cm & Température de l'air -5cm: 09.12.2019 23:00:00 - 15.12.2019 23:00:00 (CET)Norderney, Allemagne (10113): Température de l'air -20cm & Température de l'air -100cm: 09.12.2019 23:00:00 - 15.12.2019 23:00:00 (CET)Norderney, Allemagne (10113): Vitesse du vent & gusts: 09.12.2019 23:00:00 - 15.12.2019 23:00:00 (CET)Norderney, Allemagne (10113): Direction du vent: 09.12.2019 23:00:00 - 15.12.2019 23:00:00 (CET)Norderney, Allemagne (10113): reduced air pressure: 09.12.2019 23:00:00 - 15.12.2019 23:00:00 (CET)Norderney, Allemagne (10113): visibility: 09.12.2019 23:00:00 - 15.12.2019 23:00:00 (CET)Norderney, Allemagne (10113): Ensoleillement: 09.12.2019 23:00:00 - 15.12.2019 23:00:00 (CET)Norderney, Allemagne (10113): Quantités de précipitations: 09.12.2019 23:00:00 - 15.12.2019 23:00:00 (CET)
Date & Time tt [°C] td [°C] tt 5cm [°C] tt -5cm [°C] tt -20cm [°C] tt -100cm [°C] ff [km/h] ff [knt] fx [km/h] fx [knt] dd ppp [hPa] vv [km] sd [min] rr [mm]
15.12.2019 23:00:00 6,3 4,2 5,2 3,8 4,5 7,2 25 13 43 23 SSW 1002,3 27 - 0,0
15.12.2019 22:00:00 6,4 4,3 5,3 3,9 4,6 7,2 26 14 44 24 SW 1001,6 25 - 0,0
15.12.2019 21:00:00 6,2 4,3 5,2 4,0 4,6 7,2 24 13 41 22 SSW 1000,6 29 - 0,0
15.12.2019 20:00:00 6,5 5,0 5,4 4,0 4,7 7,2 23 13 42 23 SW 999,9 24 - 0,0
15.12.2019 19:00:00 6,5 4,7 5,7 4,1 4,8 7,2 26 14 46 25 SW 999,2 20 - 0,0
15.12.2019 18:00:00 6,4 4,5 5,3 4,1 4,9 7,2 28 15 47 26 SW 998,2 21 - 0,0
15.12.2019 17:00:00 6,5 3,6 5,1 4,3 5,0 7,2 21 12 46 25 SW 997,3 21 - 0,0
15.12.2019 16:00:00 7,1 2,7 6,0 4,9 5,0 7,2 29 16 49 27 WSW 996,2 18 - 0,0
15.12.2019 15:00:00 7,6 2,2 7,7 5,3 4,9 7,2 32 18 64 35 WSW 995,2 14 - 0,0
15.12.2019 14:00:00 7,7 2,2 8,0 5,3 4,8 7,2 40 22 73 39 WSW 993,8 13 - 0,0
15.12.2019 13:00:00 7,6 2,0 7,7 5,4 4,6 7,2 44 24 73 39 WSW 992,6 17 - 0,0
15.12.2019 12:00:00 7,2 1,8 7,5 4,9 4,4 7,3 37 20 70 38 SW 991,2 20 - 0,0
15.12.2019 11:00:00 6,9 1,8 6,8 4,4 4,3 7,3 37 20 68 37 SW 989,8 20 - 0,0
15.12.2019 10:00:00 7,0 2,4 5,9 4,2 4,3 7,3 44 24 64 35 SW 988,2 21 - 0,0
15.12.2019 09:00:00 7,2 3,8 6,0 4,3 4,2 7,3 42 23 67 36 SW 986,7 26 - 0,0
15.12.2019 08:00:00 7,4 5,5 6,2 4,3 4,0 7,3 35 19 59 32 SW 985,5 26 - 0,1
15.12.2019 07:00:00 5,5 4,2 4,9 3,8 3,9 7,3 32 18 56 30 S 984,7 22 - 0,8
15.12.2019 06:00:00 5,2 3,2 4,2 3,3 3,9 7,3 35 19 58 32 S 986,2 6 - 0,3
15.12.2019 05:00:00 4,2 2,0 3,9 2,9 3,9 7,3 29 16 45 25 SSE 987,7 22 - 0,0
15.12.2019 04:00:00 3,9 1,7 3,2 2,7 4,0 7,3 25 14 40 22 S 989,9 21 - 0,0
15.12.2019 03:00:00 3,8 1,2 3,3 2,9 4,1 7,3 23 13 40 21 S 991,9 24 - 0,0
15.12.2019 02:00:00 4,4 1,7 3,5 3,0 4,2 7,3 22 12 40 22 S 992,4 21 - 0,0
15.12.2019 01:00:00 5,4 1,7 4,3 3,1 4,3 7,3 29 16 45 24 SSW 993,2 25 - 0,0
15.12.2019 00:00:00 5,4 1,8 4,2 3,4 4,4 7,3 30 16 46 25 SW 993,1 25 - 0,0
14.12.2019 23:00:00 5,8 2,7 5,2 3,7 4,5 7,3 27 14 54 29 SW 992,7 19 - 0,0
14.12.2019 22:00:00 6,4 2,0 5,0 3,8 4,5 7,3 33 18 73 39 WSW 991,5 10 - 0,0
14.12.2019 21:00:00 5,6 2,9 4,5 3,8 4,6 7,3 29 16 50 27 SW 990,5 18 - 0,1
14.12.2019 20:00:00 4,6 2,8 3,7 3,8 4,7 7,3 33 18 73 39 SW 989,4 28 - 0,3
14.12.2019 19:00:00 5,8 3,0 5,1 4,2 4,7 7,3 28 15 47 26 SW 988,2 22 - 0,0
14.12.2019 18:00:00 6,1 2,8 5,4 4,4 4,8 7,3 26 14 46 25 SW 986,9 21 - 0,0
14.12.2019 17:00:00 6,2 3,0 5,5 4,5 4,8 7,3 28 15 48 26 SW 986,3 20 - 0,0
14.12.2019 16:00:00 6,1 2,9 5,2 4,6 4,8 7,3 27 15 60 33 SW 985,5 20 - 0,0
14.12.2019 15:00:00 5,7 2,4 4,4 5,0 4,7 7,3 45 24 82 44 WSW 984,7 16 - 0,0
14.12.2019 14:00:00 6,4 3,1 6,1 5,1 4,6 7,4 34 18 64 34 WSW 983,8 16 - 0,3
14.12.2019 13:00:00 5,9 3,6 4,9 4,8 4,5 7,4 33 18 58 31 WSW 983,1 16 - 0,2
14.12.2019 12:00:00 6,7 3,2 5,2 4,5 4,4 7,4 36 19 71 39 W 982,1 13 - 2,7
14.12.2019 11:00:00 6,1 3,4 5,1 4,6 4,3 7,4 28 15 51 27 WSW 981,6 16 - 0,3
14.12.2019 10:00:00 5,5 3,4 4,7 4,1 4,3 7,4 29 15 47 25 SW 980,4 24 - 0,6
14.12.2019 09:00:00 4,9 3,6 4,1 4,0 4,3 7,4 31 17 50 27 SW 979,8 11 - 0,9
14.12.2019 08:00:00 4,7 3,4 4,0 4,0 4,2 7,4 27 15 51 28 SW 978,9 27 - 0,4
14.12.2019 07:00:00 4,8 3,8 4,3 4,1 4,2 7,4 27 15 46 25 SSW 978,5 10 - 0,6
14.12.2019 06:00:00 5,0 3,7 4,5 4,0 4,1 7,4 21 11 42 23 SSW 978,1 20 - 0,0
14.12.2019 05:00:00 4,9 3,7 4,4 4,0 4,0 7,4 26 14 40 21 S 978,3 15 - 0,0
14.12.2019 04:00:00 5,3 3,9 4,6 3,8 4,0 7,5 22 12 43 23 S 978,7 21 - 0,0
14.12.2019 03:00:00 5,2 4,3 4,6 3,8 3,9 7,5 20 11 39 21 S 979,0 22 - 0,1
14.12.2019 02:00:00 5,0 4,3 4,2 3,7 3,8 7,5 16 9 37 20 SSW 979,2 13 - 0,0
14.12.2019 01:00:00 4,8 4,3 4,3 3,5 3,7 7,5 25 13 37 20 S 979,7 7 - 0,2
14.12.2019 00:00:00 4,1 3,7 3,8 3,3 3,7 7,5 17 9 29 16 S 980,1 4,6 - 0,0
13.12.2019 23:00:00 3,4 2,9 3,2 3,1 3,6 7,5 15 8 29 16 S 980,3 4,0 - 0,0
13.12.2019 22:00:00 3,3 2,6 3,0 3,0 3,6 7,5 16 8 28 15 S 980,6 6 - 0,0
13.12.2019 21:00:00 3,1 2,3 2,7 2,8 3,6 7,6 13 7 22 12 S 981,0 10 - 0,0
13.12.2019 20:00:00 2,6 1,8 2,3 2,8 3,6 7,6 12 7 23 12 S 980,8 10 - 0,1
13.12.2019 19:00:00 2,6 1,2 2,1 2,7 3,7 7,6 16 8 23 13 SSE 980,7 13 - 0,3
13.12.2019 18:00:00 2,8 0,6 2,7 2,9 3,7 7,6 16 8 22 12 SSE 980,1 24 - 0,0
13.12.2019 17:00:00 2,8 0,4 2,7 3,0 3,7 7,6 13 7 23 12 SSE 979,7 27 - 0,0
13.12.2019 16:00:00 2,7 0,3 2,7 3,1 3,6 7,6 15 8 28 15 SSE 979,1 33 - 0,0
13.12.2019 15:00:00 2,9 0,1 3,0 3,2 3,5 7,6 19 10 28 15 SE 978,3 31 - 0,0
13.12.2019 14:00:00 3,0 0,0 3,2 3,1 3,4 7,6 18 10 29 16 SE 977,9 40 - 0,0
13.12.2019 13:00:00 2,9 -0,1 3,0 2,9 3,3 7,7 18 10 35 19 SE 977,4 30 - 0,0
13.12.2019 12:00:00 2,7 -0,1 2,8 2,6 3,3 7,7 20 11 36 19 SE 977,3 39 - 0,0
13.12.2019 11:00:00 2,3 -0,5 2,5 2,3 3,2 7,7 21 12 36 19 SE 977,1 31 - 0,0
13.12.2019 10:00:00 2,4 -0,8 2,3 1,9 3,2 7,7 21 12 40 22 SE 976,8 46 - 0,0
13.12.2019 09:00:00 2,6 -1,0 2,0 1,9 3,3 7,7 22 12 42 23 SE 976,6 56 - 0,0
13.12.2019 08:00:00 2,7 -1,0 2,3 2,0 3,3 7,7 20 11 43 23 SE 976,7 70 - 0,0
13.12.2019 07:00:00 3,2 -1,0 2,8 2,0 3,3 7,7 26 14 46 25 SE 976,9 57 - 0,0
13.12.2019 06:00:00 2,7 -0,7 2,3 1,9 3,4 7,7 25 14 56 30 SE 977,4 65 - 0,0
13.12.2019 05:00:00 2,6 -0,9 2,1 1,6 3,5 7,7 29 16 50 27 SE 978,1 59 - 0,0
13.12.2019 04:00:00 2,8 -0,9 2,1 1,8 3,6 7,7 29 15 50 27 SSE 979,1 55 - 0,0
13.12.2019 03:00:00 2,9 -0,8 2,1 2,0 3,7 7,7 25 14 53 29 SE 980,2 66 - 0,0
13.12.2019 02:00:00 3,0 -0,5 2,7 2,2 3,7 7,7 29 16 49 26 SSE 981,7 51 - 0,0
13.12.2019 01:00:00 2,9 -0,5 2,4 2,1 3,8 7,7 29 16 49 26 SSE 983,5 49 - 0,0
13.12.2019 00:00:00 3,0 -0,5 2,3 2,3 3,9 7,8 33 18 51 28 SSE 985,1 57 - 0,0
12.12.2019 23:00:00 3,1 0,0 2,4 2,3 4,0 7,8 31 17 58 32 SSE 986,7 30 - 0,0
12.12.2019 22:00:00 3,1 0,1 2,3 2,1 4,2 7,8 32 17 45 24 SSE 988,1 38 - 0,0
12.12.2019 21:00:00 3,0 0,3 2,2 2,3 4,4 7,8 29 16 45 24 SSE 989,6 28 - 0,0
12.12.2019 20:00:00 3,0 0,5 2,1 2,5 4,6 7,8 26 14 39 21 SSE 991,0 29 - 0,0
12.12.2019 19:00:00 3,0 0,7 2,0 2,8 4,8 7,8 22 12 33 18 SSE 992,2 29 - 0,0
12.12.2019 18:00:00 3,4 1,1 2,4 3,3 5,1 7,8 21 12 33 18 SSE 993,5 25 - 0,0
12.12.2019 17:00:00 3,9 1,4 2,8 3,9 5,3 7,8 20 11 37 20 S 994,6 24 - 0,0
12.12.2019 16:00:00 4,6 2,6 4,2 4,6 5,4 7,8 22 12 39 21 S 995,3 20 - 0,0
12.12.2019 15:00:00 5,2 2,7 5,0 5,1 5,4 7,8 27 14 41 22 S 996,2 21 - 0,0
12.12.2019 14:00:00 5,3 3,1 6,0 5,4 5,3 7,8 24 13 35 19 S 996,6 20 - 0,0
12.12.2019 13:00:00 5,2 3,3 6,2 5,4 5,1 7,8 20 11 37 20 S 997,3 17 - 0,0
12.12.2019 12:00:00 5,6 3,5 6,7 4,9 5,1 7,8 18 10 35 19 SSW 998,0 21 - 0,0
12.12.2019 11:00:00 5,5 3,6 5,4 4,5 5,1 7,8 21 11 37 20 SSW 998,5 19 - 0,0
12.12.2019 10:00:00 5,3 4,0 4,5 4,4 5,1 7,8 22 12 36 20 SSW 998,6 14 0 0,0
12.12.2019 09:00:00 5,3 4,0 4,7 4,6 5,1 7,8 20 11 35 19 SSW 998,5 12 0 0,0
12.12.2019 08:00:00 5,5 4,0 5,1 4,5 5,1 7,8 22 12 38 20 SSW 998,5 14 0 0,0
12.12.2019 07:00:00 5,3 4,1 4,9 4,6 5,1 7,8 18 10 31 17 SSW 998,5 11 0 0,0
12.12.2019 06:00:00 5,2 4,2 4,9 4,6 5,1 7,8 20 11 34 19 S 998,7 7 0 0,0
12.12.2019 05:00:00 5,0 4,2 4,8 4,5 5,2 7,8 16 9 29 16 S 999,0 5 0 0,0
12.12.2019 04:00:00 4,9 4,0 4,0 4,7 5,2 7,8 18 10 31 17 S 999,4 5 0 0,0
12.12.2019 03:00:00 5,2 4,2 5,0 4,7 5,2 7,8 15 8 28 15 SSW 1000,5 7 0 0,0
12.12.2019 02:00:00 4,7 3,5 4,5 4,7 5,2 7,9 19 10 31 17 S 1000,9 7 0 0,0
12.12.2019 01:00:00 5,0 4,2 4,8 4,7 5,1 7,9 14 8 29 16 S 1001,3 4,9 0 0,0
12.12.2019 00:00:00 5,1 4,3 4,8 4,7 5,1 7,9 18 10 28 15 SSW 1001,9 5 0 0,0
11.12.2019 23:00:00 5,5 4,8 5,1 4,5 5,1 7,9 15 8 27 15 SSW 1001,9 4,1 0 0,0
11.12.2019 22:00:00 5,3 4,8 4,6 4,4 5,1 7,9 13 7 24 13 S 1002,4 4,2 0 0,0
11.12.2019 21:00:00 5,2 4,7 4,7 4,2 5,2 7,9 14 8 23 12 S 1002,6 4,8 0 0,0
11.12.2019 20:00:00 5,2 4,4 4,2 4,2 5,3 7,9 14 8 23 12 S 1003,0 7 0 0,0
11.12.2019 19:00:00 5,2 4,7 4,3 4,5 5,5 7,9 13 7 21 12 S 1003,2 6 0 0,0
11.12.2019 18:00:00 5,5 4,9 4,8 4,9 5,5 7,9 13 7 24 13 S 1003,5 8 0 0,0
11.12.2019 17:00:00 5,7 5,1 5,2 5,1 5,6 7,9 14 8 22 12 S 1003,6 8 0 0,0
11.12.2019 16:00:00 5,9 5,1 5,1 5,4 5,6 7,9 15 8 24 13 S 1003,7 11 0 0,0
11.12.2019 15:00:00 6,1 5,3 5,5 5,7 5,5 7,9 13 7 26 14 S 1003,9 12 0 0,0
11.12.2019 14:00:00 6,2 5,5 5,9 5,8 5,4 7,9 13 7 27 15 SSW 1004,6 13 0 0,0
11.12.2019 13:00:00 6,3 5,6 6,2 5,6 5,3 7,9 17 9 31 17 SSW 1005,3 11 0 0,0
11.12.2019 12:00:00 6,0 5,6 5,8 5,1 5,2 7,9 18 10 31 17 S 1006,0 11 0 0,0
11.12.2019 11:00:00 5,8 5,4 5,3 4,8 5,2 8,0 16 8 30 16 S 1006,5 11 0 0,0
11.12.2019 10:00:00 6,0 5,5 5,4 4,8 5,2 8,0 18 10 32 17 SSW 1006,3 11 0 0,0
11.12.2019 09:00:00 6,0 5,6 5,4 4,8 5,2 8,0 18 10 32 17 SSW 1006,4 11 0 0,0
11.12.2019 08:00:00 5,9 5,5 5,4 4,8 5,1 8,0 18 10 35 19 SSW 1006,1 16 0 0,0
11.12.2019 07:00:00 5,7 5,2 5,2 4,9 5,1 8,0 21 11 36 20 SSW 1006,0 23 0 0,0
11.12.2019 06:00:00 5,7 5,1 5,3 4,9 5,0 8,0 25 13 41 22 S 1005,6 25 0 0,3
11.12.2019 05:00:00 5,7 5,3 5,3 4,7 5,0 8,0 21 12 46 25 SSW 1005,9 13 0 0,9
11.12.2019 04:00:00 5,0 4,2 4,6 4,5 4,9 8,0 27 14 60 33 S 1005,7 8 0 0,3
11.12.2019 03:00:00 5,2 3,4 4,6 4,5 4,9 8,0 41 22 68 37 S 1005,3 9 0 0,0
11.12.2019 02:00:00 5,8 2,0 5,6 4,4 4,9 8,0 39 21 64 35 S 1005,4 33 0 0,0
11.12.2019 01:00:00 5,9 1,6 5,7 4,3 4,9 8,0 39 21 63 34 S 1006,0 44 0 0,0
11.12.2019 00:00:00 5,6 1,5 5,4 4,2 4,9 8,0 41 22 64 35 S 1006,8 35 0 0,0
10.12.2019 23:00:00 5,6 1,2 5,4 4,1 4,9 8,1 41 22 68 37 S 1007,6 37 0 0,0
10.12.2019 22:00:00 5,6 0,9 5,3 4,0 4,9 8,1 46 25 69 37 S 1008,4 37 0 0,0
10.12.2019 21:00:00 5,1 1,0 4,6 4,0 4,9 8,1 36 20 62 34 S 1009,0 38 0 0,0
10.12.2019 20:00:00 5,0 1,5 3,7 4,0 5,0 8,1 39 21 63 34 S 1010,4 18 0 0,1
10.12.2019 19:00:00 5,0 1,3 4,7 3,9 5,1 8,1 35 19 65 35 S 1012,0 33 0 0,0
10.12.2019 18:00:00 4,7 1,3 4,1 3,8 5,2 8,1 31 17 52 28 S 1013,3 34 0 0,0
10.12.2019 17:00:00 4,8 1,2 4,0 4,2 5,3 8,1 28 15 50 27 S 1014,7 30 0 0,0
10.12.2019 16:00:00 5,3 1,3 4,8 4,6 5,4 8,1 28 15 46 25 S 1016,3 36 0 0,0
10.12.2019 15:00:00 6,1 1,3 5,7 5,1 5,4 8,1 32 17 50 27 S 1017,4 50 57 0,0
10.12.2019 14:00:00 6,0 2,5 6,7 5,2 5,3 8,1 24 13 41 22 S 1018,7 30 17 0,0
10.12.2019 13:00:00 5,6 2,8 6,0 5,4 5,2 8,1 21 11 36 19 S 1019,7 36 40 0,0
10.12.2019 12:00:00 5,4 2,3 6,1 5,1 5,1 8,1 16 9 31 17 S 1020,7 29 58 0,0
10.12.2019 11:00:00 6,1 2,5 6,7 4,4 5,0 8,1 18 10 32 17 SSW 1021,6 30 35 0,0
10.12.2019 10:00:00 5,8 2,5 4,9 4,0 5,1 8,2 13 7 24 13 SSW 1021,4 27 3 0,0
10.12.2019 09:00:00 6,5 2,3 4,7 4,2 5,1 8,2 8 4 23 12 W 1021,3 8 0 0,0
10.12.2019 08:00:00 6,6 2,8 4,9 4,2 5,2 8,2 19 10 35 19 W 1021,2 6 0 0,0
10.12.2019 07:00:00 6,7 1,7 5,3 4,4 5,2 8,2 16 9 32 17 WNW 1020,8 10 0 0,0
10.12.2019 06:00:00 6,6 2,2 5,2 4,3 5,2 8,2 24 13 34 18 NW 1020,4 14 0 0,0
10.12.2019 05:00:00 6,6 1,8 5,4 4,2 5,3 8,2 30 16 51 27 WNW 1019,9 18 0 0,0
10.12.2019 04:00:00 6,8 1,2 5,3 4,4 5,4 8,2 38 20 54 29 NW 1019,2 14 0 0,0
10.12.2019 03:00:00 6,9 2,2 5,0 4,4 5,4 8,2 36 19 63 34 NNW 1018,5 14 0 0,4
10.12.2019 02:00:00 7,0 2,4 6,0 4,3 5,5 8,2 38 20 58 31 NW 1017,1 14 0 0,0
10.12.2019 01:00:00 6,8 2,3 5,8 4,6 5,5 8,2 48 26 65 35 NW 1016,0 11 0 0,0
10.12.2019 00:00:00 7,2 1,3 6,0 4,6 5,6 8,2 50 27 64 34 NW 1014,8 12 0 0,0
09.12.2019 23:00:00 7,1 1,7 6,4 4,6 5,6 8,2 58 31 73 39 NNW 1013,4 10 0 0,0

tt = Température de l'air
td = dewpoint
tt 5cm = Température de l'air 5cm
tt -5cm = Température de l'air -5cm
tt -20cm = Température de l'air -20cm
tt -100cm = Température de l'air -100cm
ff = Vitesse du vent
fx = gusts
dd = Direction du vent
ppp = reduced air pressure
vv = visibility
sd = Ensoleillement
rr = Quantités de précipitations

stations d'obs. à proximité